Location: Devargunta
(16.7631°N, 80.9077°E)
Time: 11:57:49
(UTC+00:00)

Cosmos 540 Rocket - Pass Details

Date: 02 December 2021
Orbit: 739 x 754 km, 74.1° (Epoch: 26 January)

Event Time Altitude Azimuth Distance (km) Brightness Sun altitude
Exits shadow 22:36:22 34° 48° (NE) 1,227 4.7 -31.1°
Maximum altitude 22:37:24 37° 75° (ENE) 1,150 4.7 -30.9°
Drops below altitude 10° 22:42:08 10° 142° (SE) 2,265 6.6 -29.8°
Sets 22:44:39 0° 150° (SSE) 3,189 7.3 -29.2°
